Location: Newark
(0.5300°S, 127.4800°E)
Time: 00:03:57
(UTC+00:00)

Vanguard 3 - Pass Details

Date: 18 September 2019
Orbit: 508 x 3262 km, 33.3° (Epoch: 15 October)

Event Time Altitude Azimuth Distance (km) Brightness Sun altitude
Rises 05:31:11 0° 318° (NW) 7,109 12.3 58.2°
Reaches altitude 10° 05:37:43 10° 329° (NNW) 5,832 11.9 56.6°
Maximum altitude 05:50:42 26° 19° (NNE) 3,756 10.7 53.4°
Drops below altitude 10° 05:59:44 10° 71° (ENE) 4,014 10.4 51.1°
Sets 06:03:07 0° 84° (E) 4,610 10.6 50.3°
